Regional Weather Roundup
Issued by NWS Little Rock, AR

Home | Current Version | Previous Version | Text Only | Print | Product List | Glossary Off
Versions: 1 2 3 4 5 6 7 8 9 10 11 12 13 14 15 16 17 18 19 20 21 22 23 24 25 26 27 28 29 30 31 32 33 34 35 36 37 38 39 40 41 42 43 44 45 46 47 48 49 50

000
ASUS44 KLZK 200005
RWRLZK

WEATHER ROUNDUP FOR ARKANSAS
NATIONAL WEATHER SERVICE LITTLE ROCK AR
600 PM CST FRI JAN 19 2018

NOTE: "FAIR" INDICATES FEW OR NO CLOUDS BELOW 12,000 FEET WITH NO
SIGNIFICANT WEATHER AND/OR OBSTRUCTIONS TO VISIBILITY.

ARZ001-003-010-029-200100-
NORTHWEST ARKANSAS

CITY           SKY/WX    TMP DP  RH WIND       PRES   REMARKS
FAYETTEVILLE   CLEAR     44  29  55 S6        29.97F
6HR MIN TEMP:  44; 6HR MAX TEMP:  54;

FORT SMITH     CLEAR     52  35  52 S8        30.02S
6HR MIN TEMP:  50; 6HR MAX TEMP:  59;

HARRISON       CLOUDY    45  30  55 S12       29.98S
6HR MIN TEMP:  45; 6HR MAX TEMP:  57;

ROGERS         CLOUDY    47  29  49 S12       29.96F
6HR MIN TEMP:  47; 6HR MAX TEMP:  53;

SILOAM SPGS    CLOUDY    48  30  49 S10       29.96F
6HR MIN TEMP:  48; 6HR MAX TEMP:  55;

HIGHFILL       CLOUDY    46  29  51 S10       29.95F
6HR MIN TEMP:  46; 6HR MAX TEMP:  54;

SPRINGDALE     CLEAR     46  28  49 S6        29.98S
$$

ARZ004-005-016-200100-
NORTH CENTRAL ARKANSAS

CITY           SKY/WX    TMP DP  RH WIND       PRES   REMARKS
BATESVILLE     CLEAR     38  21  50 S8        30.09F
6HR MIN TEMP:  38; 6HR MAX TEMP:  48;

FLIPPIN        CLOUDY    48  30  49 VRB7      30.01S
6HR MIN TEMP:  48; 6HR MAX TEMP:  57;

MTN HOME       CLOUDY    45  30  55 SW7       30.00
6HR MIN TEMP:  45; 6HR MAX TEMP:  55;

$$

ARZ040-041-200100-
WEST CENTRAL ARKANSAS

CITY           SKY/WX    TMP DP  RH WIND       PRES   REMARKS
MENA           CLOUDY    50  32  50 S6        30.07S
MOUNT IDA      CLOUDY    46  26  45 VRB3      30.07S
6HR MIN TEMP:  46; 6HR MAX TEMP:  51;

$$

ARZ009-017-025-026-028-200100-
NORTHEAST ARKANSAS

CITY           SKY/WX    TMP DP  RH WIND       PRES   REMARKS
JONESBORO      CLOUDY    37  30  75 S10       30.12S
6HR MIN TEMP:  37; 6HR MAX TEMP:  44;

NEWPORT        FAIR      33  26  75 S9        30.12S WCI  25
6HR MIN TEMP:  33; 6HR MAX TEMP:  43;

WALNUT RIDGE   FAIR      35  25  66 S15       30.10S WCI  25
6HR MIN TEMP:  35; 6HR MAX TEMP:  43;

BLYTHEVILLE    CLOUDY    39  25  57 S14       30.13F
6HR MIN TEMP:  37; 6HR MAX TEMP:  41;

$$

ARZ022-023-033-042-044-200100-
CENTRAL ARKANSAS

CITY           SKY/WX    TMP DP  RH WIND       PRES   REMARKS
LITTLE ROCK    CLOUDY    43  22  43 S6        30.14F
6HR MIN TEMP:  42; 6HR MAX TEMP:  45;

N LITTLE ROCK    N/A     42  23  47 S7        30.09S
6HR MIN TEMP:  40; 6HR MAX TEMP:  44;

JACKSONVILLE   CLOUDY    40  27  59 SE5       30.12S
6HR MIN TEMP:  40; 6HR MAX TEMP:  45;

SEARCY         MOCLDY    35  27  72 S9        30.14S WCI  28
6HR MIN TEMP:  35; 6HR MAX TEMP:  45;

HOT SPRINGS    CLOUDY    44  23  43 SE6       30.13S
6HR MIN TEMP:  42; 6HR MAX TEMP:  47;

RUSSELLVILLE   CLOUDY    48  31  51 S13       30.06S
6HR MIN TEMP:  44; 6HR MAX TEMP:  56;

CLINTON        FAIR      43  27  52 SE6G12    30.07S
$$

ARZ036-200100-
EAST ARKANSAS

CITY           SKY/WX    TMP DP  RH WIND       PRES   REMARKS
WEST MEMPHIS   CLOUDY    38  24  57 S13       30.17S
6HR MIN TEMP:  36; 6HR MAX TEMP:  38;

$$

ARZ050-053-066-070-073-200100-
SOUTHWEST ARKANSAS

CITY           SKY/WX    TMP DP  RH WIND       PRES   REMARKS
ARKADELPHIA    CLOUDY    42  31  64 SE3       30.15S
6HR MIN TEMP:  36; 6HR MAX TEMP:  44;

CAMDEN         CLOUDY    48  23  37 SE5       30.15S
TEXARKANA      CLOUDY    48  25  40 E3        30.12S
6HR MIN TEMP:  46; 6HR MAX TEMP:  50;

EL DORADO      CLOUDY    50  20  30 SE9       30.16S
6HR MIN TEMP:  45; 6HR MAX TEMP:  52;

DE QUEEN       CLOUDY    51  27  39 S6        30.09S
6HR MIN TEMP:  44; 6HR MAX TEMP:  54;

$$

ARZ056-057-069-200100-
SOUTHEAST ARKANSAS

CITY           SKY/WX    TMP DP  RH WIND       PRES   REMARKS
PINE BLUFF     CLOUDY    37  32  82 E7        30.16S
6HR MIN TEMP:  37; 6HR MAX TEMP:  42;

STUTTGART      CLOUDY    38  29  70 S8        30.16S
6HR MIN TEMP:  37; 6HR MAX TEMP:  41;

MONTICELLO     CLOUDY    45  25  45 S8        30.18S
6HR MIN TEMP:  44; 6HR MAX TEMP:  48;


$$





USA.gov is the U.S. government's official web portal to all federal, state and local government web resources and services.